This is the latest recevied weather packets stored in our database for station/object CH79EN-13. If no packets are shown the sender has not sent any weather packets the latest 10 day(s).
| Time | Temp. | Humidity | Pressure | Rain* | Wind** | Luminosity | Snow |
|---|---|---|---|---|---|---|---|
| 1788338727 | 20° C | 99% | 1027.3 hPa | 0 mm | - | 0 W/m² | - |
| 1788338575 | 20° C | 99% | 1027.3 hPa | 0 mm | - | 0 W/m² | - |
| 1788338270 | 19.44° C | 99% | 1027.3 hPa | 0 mm | - | 0 W/m² | - |
| 1788338117 | 19.44° C | 99% | 1027.3 hPa | 0 mm | - | 0 W/m² | - |
| 1788337965 | 18.89° C | 99% | 1027.5 hPa | 0 mm | - | 0 W/m² | - |
| 1788337812 | 18.89° C | 99% | 1027.4 hPa | 0 mm | - | 0 W/m² | - |
| 1788337660 | 19.44° C | 99% | 1027.4 hPa | 0 mm | - | 0 W/m² | - |
| 1788337507 | 18.89° C | 99% | 1027.3 hPa | 0 mm | - | 0 W/m² | - |
| 1788337355 | 19.44° C | 99% | 1027.3 hPa | 0 mm | - | 0 W/m² | - |
| 1788337202 | 20.56° C | 99% | 1027.2 hPa | 0 mm | - | 0 W/m² | - |
| 1788337050 | 20.56° C | 99% | 1027.1 hPa | 0 mm | - | 0 W/m² | - |
| 1788336897 | 20.56° C | 99% | 1027.2 hPa | 0 mm | - | 0 W/m² | - |
| 1788336745 | 21.11° C | 99% | 1027.2 hPa | 0 mm | - | 0 W/m² | - |
| 1788336592 | 21.11° C | 99% | 1027.2 hPa | 0 mm | - | 0 W/m² | - |
| 1788336440 | 21.11° C | 99% | 1027.2 hPa | 0 mm | - | 0 W/m² | - |
| 1788336287 | 20.56° C | 99% | 1027.2 hPa | 0 mm | - | 0 W/m² | - |
| 1788336135 | 20° C | 99% | 1027.2 hPa | 0 mm | - | 0 W/m² | - |
| 1788335830 | 20.56° C | 99% | 1027 hPa | 0 mm | - | 0 W/m² | - |
| 1788335677 | 20.56° C | 99% | 1027 hPa | 0 mm | - | 0 W/m² | - |
| 1788335525 | 20° C | 99% | 1027 hPa | 0 mm | - | 0 W/m² | - |
| 1788335372 | 19.44° C | 99% | 1027 hPa | 0 mm | - | 0 W/m² | - |
| 1788335220 | 18.89° C | 99% | 1027.1 hPa | 0 mm | - | 0 W/m² | - |
| 1788335067 | 18.33° C | 99% | 1027.2 hPa | 0 mm | - | 0 W/m² | - |
| 1788334915 | 17.78° C | 99% | 1027.2 hPa | 0 mm | - | 0 W/m² | - |
| 1788334762 | 17.22° C | 99% | 1027.2 hPa | 0 mm | - | 0 W/m² | - |
* Rain since midnight (hover to see other rain measurements)
** Current wind speed in m/s (hover to see current wind gust speed)